Regional Weather Roundup
Issued by NWS

Home | Current Version | Previous Version | Graphics & Text | Print | Product List | Glossary On
Versions: 1 2 3 4 5 6 7 8 9 10 11 12 13 14 15 16 17 18 19 20 21 22 23 24 25 26 27 28 29 30 31 32 33 34 35 36 37 38 39 40 41 42 43 44 45 46 47 48 49 50
000
ASUS44 KMEG 180610
RWRTN
TENNESSEE HOURLY STATE WEATHER ROUNDUP
NATIONAL WEATHER SERVICE MEMPHIS TN
1200 AM CST SUN FEB 18 2018

TNZ002-004-019-021-049-052-054-088>092-180700-
WEST TENNESSEE

CITY           SKY/WX    TMP DP  RH WIND       PRES   REMARKS
MEMPHIS INTL   FAIR      40  38  93 NE3       30.26S
NWS MEMPHIS      N/A     37 N/A N/A MISG        N/A
JACKSON        FAIR      36  36 100 CALM      30.27S FOG
DYERSBURG      FOG       35  35 100 NE3       30.28S VSB 1/4
COVINGTON      FOG       36  36 100 CALM      30.27S VSB 0
UNION CITY     FOG       32  32 100 CALM      30.27S VSB 0
BOLIVAR        PTCLDY    37  37 100 CALM      30.26R
PARIS          FOG       32  32 100 CALM      30.26S VSB 0
HUNTINGDON     FOG       34  34 100 CALM      30.26S VSB 1/2
LEXINGTON      PTCLDY    41  39  93 CALM      30.27S
SELMER         MOCLDY    41  39  93 NE5       30.25S
SAVANNAH       MOCLDY    43  39  87 N7        30.26R
$$

TNZ008-025-027-028-033-062-065-066-180700-
NORTH MIDDLE TENNESSEE

CITY           SKY/WX    TMP DP  RH WIND       PRES   REMARKS
NASHVILLE      CLOUDY    44  36  73 N9        30.28R
PORTLAND       CLEAR     39  37  93 CALM      30.26R
CLARKSVILLE    FAIR      39  37  92 NW5       30.28R
SMYRNA         CLOUDY    44  38  79 N16       30.28R
COOKEVILLE     CLOUDY    45  43  93 NW6       30.23R
GALLATIN       PTCLDY    41  37  87 N5        30.29S
CROSSVILLE     CLOUDY    42  39  89 NW6       30.21R
$$

TNZ061-075-076-078-094-096-097-180700-
SOUTH MIDDLE TENNESSEE

CITY           SKY/WX    TMP DP  RH WIND       PRES   REMARKS
FAYETTEVILLE   CLOUDY    46  45  93 N14G22    30.22S
TULLAHOMA      CLOUDY    45  43  93 N9        30.22S
WINCHESTER     CLOUDY    45  43  93 N6        30.23R
MCMINNVILLE    CLOUDY    46  43  87 N7        30.23R
COLUMBIA       MOCLDY    45  43  93 N6        30.24S
SHELBYVILLE    CLOUDY    45  41  87 N13       30.24S
$$

TNZ017-018-042-046-047-180700-
NORTHEAST TENNESSEE

CITY           SKY/WX    TMP DP  RH WIND       PRES   REMARKS
TRI CITIES     LGT RAIN  47  47 100 SW7       30.16S FOG
ELIZABETHTON   CLOUDY    48  46  93 W6        30.16R
$$

TNZ012-013-036-069-073-074-180700-
CENTRAL EAST TENNESSEE

CITY           SKY/WX    TMP DP  RH WIND       PRES   REMARKS
KNOXVILLE      MOCLDY    47  45  93 W8        30.19S
OAK RIDGE      MOCLDY    47  46  97 CALM      30.21S
DOWNTOWN KNOXV CLOUDY    46  46 100 CALM      30.20F
GATLINBURG     CLOUDY    48  46  93 NW6G12    30.19F
MORRISTOWN     MOCLDY    46  46 100 W8        30.18S
$$

TNZ083-085-099-180700-
SOUTHEAST TENNESSEE

CITY           SKY/WX    TMP DP  RH WIND       PRES   REMARKS
CHATTANOOGA    MOCLDY    50  45  83 N9        30.20F
$$

SKY/WX REPORTED AS FAIR MEANS FEW OR NO CLOUDS BELOW
12 THOUSAND FEET.





USA.gov is the U.S. government's official web portal to all federal, state and local government web resources and services.